Pope Field Airport, NC

3:24 AM EDT on August 23, 2017 (GMT -0400)
Pope Field Airport

Weather History for KPOB - July, 2013

Change the Weather History Date:

Sunday, July 28, 2013

  Actual Average Record
Temperature  
Mean Temperature 79 °F -  
Max Temperature 87 °F 91 °F 102 °F (1997)
Min Temperature 71 °F 73 °F 64 °F (1983)
Cooling Degree Days 14    
Growing Degree Days 29 (Base 50)    
Moisture  
Dew Point 71 °F    
Average Humidity 87    
Maximum Humidity 100    
Minimum Humidity 55    
Precipitation  
Precipitation 0.39 in - - ()
Sea Level Pressure  
Sea Level Pressure 29.96 in    
Wind  
Wind Speed 4 mph (WSW)    
Max Wind Speed 13 mph    
Max Gust Speed -    
Visibility 9 miles    
Events Rain    
Averages and records for this station are not official NWS values.
T = Trace of Precipitation, MM = Missing Value Source: NWS Daily Summary

Daily Weather History Graph

Daily Weather History Graph

Search for Another Location

Airport or City:

Trip Planner

Search our weather history database for the weather conditions in past years. The results will help you decide how hot, cold, wet, or windy it might be!

Date:

Astronomy

Jul. 28, 2013 Rise Set
Actual Time 6:22 AM EDT 8:22 PM EDT
Civil Twilight 5:54 AM EDT 8:50 PM EDT
Nautical Twilight 5:19 AM EDT 9:24 PM EDT
Astronomical Twilight 4:43 AM EDT 10:01 PM EDT
Moon No Moon Rise 12:45 PM EDT (7/28)
Length of Visible Light 14h 56m
Length of Day
14h 00m
Waning Gibbous, 61% of the Moon is Illuminated
Jul 28
Waning Gibbous
Jul 29
Last Quarter
Aug 6
New
Aug 14
First Quarter
Aug 20
Full

Hourly Weather History & Observations

Time (EDT) Temp. Heat Index Dew Point Humidity Pressure Visibility Wind Dir Wind Speed Gust Speed Precip Events Conditions
12:28 AM 71.6 °F - 71.6 °F 100% 29.95 in 10.0 mi SSE 5.8 mph - N/A Rain Light Rain
12:43 AM 71.6 °F - 71.6 °F 100% 29.95 in 10.0 mi Variable 3.5 mph - N/A Rain Light Rain
12:53 AM 73.4 °F - 71.6 °F 94% 29.94 in 10.0 mi Variable 3.5 mph - N/A Rain Light Rain
12:54 AM 71.6 °F - 69.8 °F 94% 29.94 in 10.0 mi SSE 5.8 mph - N/A   Light Drizzle
12:56 AM 71.6 °F - 69.8 °F 94% 29.94 in 10.0 mi SE 5.8 mph - N/A   Mostly Cloudy
12:58 AM 71.6 °F - 69.8 °F 94% 29.94 in 10.0 mi SE 5.8 mph - 0.04 in   Mostly Cloudy
1:27 AM 73.4 °F - 71.6 °F 94% 29.93 in 10.0 mi Variable 2.3 mph - N/A   Light Drizzle
1:37 AM 73.4 °F - 71.6 °F 94% 29.92 in 10.0 mi Variable 1.2 mph - N/A   Scattered Clouds
1:58 AM 73.0 °F - 70.9 °F 93% 29.94 in 10.0 mi West 3.5 mph - 0.00 in   Scattered Clouds
2:38 AM 71.6 °F - 71.6 °F 100% 29.94 in 10.0 mi West 3.5 mph - N/A   Overcast
2:58 AM 72.3 °F - 70.9 °F 95% 29.95 in 10.0 mi NW 3.5 mph - N/A   Overcast
3:08 AM 71.6 °F - 71.6 °F 100% 29.94 in 10.0 mi WNW 2.3 mph - N/A   Mostly Cloudy
3:13 AM 71.6 °F - 71.6 °F 100% 29.93 in 10.0 mi Calm Calm - N/A   Mostly Cloudy
3:23 AM 71.6 °F - 71.6 °F 100% 29.93 in 10.0 mi Calm Calm - N/A   Mostly Cloudy
3:28 AM 71.6 °F - 71.6 °F 100% 29.92 in 9.0 mi Calm Calm - N/A   Mostly Cloudy
3:38 AM 71.6 °F - 69.8 °F 94% 29.93 in 10.0 mi Calm Calm - N/A   Mostly Cloudy
3:58 AM 72.1 °F - 70.9 °F 96% 29.95 in 10.0 mi NW 3.5 mph - N/A   Mostly Cloudy
4:03 AM 71.6 °F - 71.6 °F 100% 29.94 in 9.0 mi NW 3.5 mph - N/A   Mostly Cloudy
4:08 AM 71.6 °F - 71.6 °F 100% 29.94 in 7.0 mi NNW 2.3 mph - N/A   Mostly Cloudy
4:13 AM 71.6 °F - 71.6 °F 100% 29.94 in 5.0 mi Calm Calm - N/A   Overcast
4:18 AM 71.6 °F - 69.8 °F 94% 29.94 in 5.0 mi NNW 2.3 mph - N/A   Overcast
4:28 AM 71.6 °F - 71.6 °F 100% 29.94 in 7.0 mi NW 1.2 mph - N/A   Overcast
4:33 AM 71.6 °F - 69.8 °F 94% 29.94 in 10.0 mi NW 2.3 mph - N/A   Overcast
4:53 AM 71.6 °F - 69.8 °F 94% 29.93 in 10.0 mi Calm Calm - N/A   Mostly Cloudy
4:58 AM 71.8 °F - 70.5 °F 96% 29.94 in 10.0 mi West 1.2 mph - N/A   Mostly Cloudy
5:33 AM 71.6 °F - 71.6 °F 100% 29.94 in 9.0 mi WNW 3.5 mph - N/A   Mostly Cloudy
5:43 AM 71.6 °F - 69.8 °F 94% 29.94 in 7.0 mi NW 1.2 mph - N/A   Mostly Cloudy
5:48 AM 71.6 °F - 69.8 °F 94% 29.94 in 8.0 mi NW 1.2 mph - N/A   Mostly Cloudy
5:58 AM 71.4 °F - 70.5 °F 97% 29.95 in 10.0 mi Calm Calm - N/A   Mostly Cloudy
6:08 AM 71.6 °F - 69.8 °F 94% 29.94 in 9.0 mi Calm Calm - N/A   Mostly Cloudy
6:13 AM 71.6 °F - 69.8 °F 94% 29.94 in 8.0 mi Calm Calm - N/A   Mostly Cloudy
6:39 AM 71.6 °F - 69.8 °F 94% 29.95 in 9.0 mi Calm Calm - N/A   Mostly Cloudy
6:58 AM 71.4 °F - 70.5 °F 97% 29.97 in 6.0 mi Calm Calm - N/A   Mostly Cloudy
7:53 AM 71.6 °F - 71.6 °F 100% 29.97 in 7.0 mi Variable 1.2 mph - N/A   Mostly Cloudy
7:58 AM 72.1 °F - 70.9 °F 96% 29.98 in 8.0 mi Calm Calm - N/A   Mostly Cloudy
8:18 AM 73.4 °F - 71.6 °F 94% 29.96 in 10.0 mi North 1.2 mph - N/A   Scattered Clouds
8:58 AM 74.3 °F - 70.9 °F 89% 29.99 in 10.0 mi SW 3.5 mph - N/A   Partly Cloudy
9:58 AM 75.9 °F - 71.4 °F 86% 29.98 in 10.0 mi WSW 4.6 mph - N/A   Scattered Clouds
10:18 AM 77.0 °F - 71.6 °F 83% 29.97 in 10.0 mi Variable 5.8 mph - N/A   Mostly Cloudy
10:58 AM 78.1 °F - 72.5 °F 83% 29.99 in 10.0 mi West 5.8 mph - N/A   Overcast
11:18 AM 78.8 °F - 73.4 °F 83% 29.98 in 10.0 mi SSW 5.8 mph - N/A   Mostly Cloudy
11:43 AM 80.6 °F 85.4 °F 73.4 °F 79% 29.98 in 10.0 mi SSW 4.6 mph - N/A   Scattered Clouds
11:58 AM 81.0 °F 85.6 °F 72.9 °F 76% 29.99 in 10.0 mi WSW 3.5 mph - 0.01 in   Partly Cloudy
12:58 PM 82.8 °F 88.4 °F 72.9 °F 72% 29.98 in 10.0 mi SSW 5.8 mph - N/A   Mostly Cloudy
1:00 PM 82.4 °F 87.2 °F 71.6 °F 70% 29.97 in 10.0 mi SSW 5.8 mph - N/A   Light Drizzle
1:05 PM 82.4 °F 87.2 °F 71.6 °F 70% 29.97 in 9.0 mi WSW 4.6 mph - N/A   Light Drizzle
1:10 PM 80.6 °F 86.2 °F 75.2 °F 84% 29.98 in 0.5 mi Variable 2.3 mph - N/A Rain Heavy Rain
1:15 PM 78.8 °F - 73.4 °F 83% 29.97 in 0.5 mi SSW 6.9 mph - N/A Rain Heavy Rain
1:20 PM 78.8 °F - 73.4 °F 83% 29.97 in 1.0 mi Variable 4.6 mph - N/A Rain Light Rain
1:25 PM 78.8 °F - 71.6 °F 78% 29.97 in 4.0 mi Variable 4.6 mph - N/A Rain Light Rain
1:30 PM 78.8 °F - 73.4 °F 83% 29.97 in 4.0 mi NE 1.2 mph - N/A Rain Light Rain
1:39 PM 78.8 °F - 71.6 °F 78% 29.97 in 10.0 mi SSE 2.3 mph - N/A   Scattered Clouds
1:57 PM 80.6 °F 85.4 °F 73.4 °F 79% 29.96 in 10.0 mi SSW 3.5 mph - N/A   Light Drizzle
1:58 PM 80.6 °F 85.4 °F 73.4 °F 79% 29.96 in 10.0 mi SSW 3.5 mph - 0.34 in   Light Drizzle
2:09 PM 82.4 °F 88.2 °F 73.4 °F 74% 29.96 in 10.0 mi SW 10.4 mph - N/A   Partly Cloudy
2:58 PM 86.2 °F 91.4 °F 70.7 °F 60% 29.96 in 10.0 mi Variable 5.8 mph - 0.00 in   Partly Cloudy
3:58 PM 86.4 °F 90.4 °F 68.9 °F 56% 29.95 in 10.0 mi NW 4.6 mph - N/A   Partly Cloudy
4:58 PM 87.3 °F 91.6 °F 69.4 °F 55% 29.94 in 10.0 mi SSW 8.1 mph - N/A   Partly Cloudy
5:58 PM 86.4 °F 90.0 °F 68.5 °F 55% 29.95 in 10.0 mi SW 10.4 mph - N/A   Partly Cloudy
6:58 PM 85.8 °F 90.4 °F 69.8 °F 59% 29.96 in 10.0 mi SSW 5.8 mph - N/A   Clear
7:58 PM 83.8 °F 89.8 °F 72.5 °F 69% 29.96 in 10.0 mi SSW 6.9 mph - N/A   Clear
8:58 PM 82.0 °F 87.0 °F 72.1 °F 72% 29.99 in 10.0 mi SW 8.1 mph - N/A   Clear
9:58 PM 80.6 °F 84.4 °F 71.4 °F 73% 30.01 in 10.0 mi SSW 6.9 mph - N/A   Clear
10:58 PM 79.2 °F - 72.0 °F 78% 30.01 in 10.0 mi SSW 6.9 mph - N/A   Clear
11:58 PM 77.7 °F - 72.7 °F 84% 30.01 in 10.0 mi SW 12.7 mph - N/A   Clear